Laramie, WY

1:29 PM MDT on September 22, 2017 (GMT -0600)
Laramie Regional

Weather History for KLAR - October, 2012

Change the Weather History Date:

Saturday, October 27, 2012

  Actual Average Record
Temperature  
Mean Temperature 28 °F 38 °F  
Max Temperature 34 °F 51 °F 73 °F (2016)
Min Temperature 21 °F 25 °F -16 °F (2011)
Degree Days  
Heating Degree Days 37 27  
Month to date heating degree days 644 604  
Since 1 July heating degree days 979 1129  
Cooling Degree Days 0 0  
Month to date cooling degree days 0 0  
Year to date cooling degree days 211 67  
Moisture  
Dew Point 20 °F    
Average Humidity 74    
Maximum Humidity 84    
Minimum Humidity 64    
Precipitation  
Precipitation 0.00 in 0.03 in 0.18 in (2009)
Month to date precipitation 1.01 0.72  
Year to date precipitation 5.90 9.98  
Sea Level Pressure  
Sea Level Pressure 30.14 in    
Wind  
Wind Speed 15 mph (WSW)    
Max Wind Speed 28 mph    
Max Gust Speed 32 mph    
Visibility 10 miles    
Events      
T = Trace of Precipitation, MM = Missing Value Source: NWS Daily Summary

Daily Weather History Graph

Daily Weather History Graph

Search for Another Location

Airport or City:

Trip Planner

Search our weather history database for the weather conditions in past years. The results will help you decide how hot, cold, wet, or windy it might be!

Date:

Astronomy

Oct. 27, 2012 Rise Set
Actual Time 7:28 AM MDT 6:03 PM MDT
Civil Twilight 7:00 AM MDT 6:31 PM MDT
Nautical Twilight 6:27 AM MDT 7:04 PM MDT
Astronomical Twilight 5:55 AM MDT 7:36 PM MDT
Moon 4:51 PM MDT (10/27) 5:25 AM MDT (10/27)
Length of Visible Light 11h 31m
Length of Day
10h 34m
Waxing Gibbous, 96% of the Moon is Illuminated
Oct 27
Waxing Gibbous
Oct 29
Full
Nov 6
Last Quarter
Nov 13
New
Nov 20
First Quarter

Hourly Weather History & Observations

Time (MDT) Temp. Windchill Dew Point Humidity Pressure Visibility Wind Dir Wind Speed Gust Speed Precip Events Conditions
12:53 AM 21.9 °F 13.4 °F 12.0 °F 66% 30.20 in 10.0 mi SW 6.9 mph - N/A   Mostly Cloudy
1:53 AM 25.0 °F 11.3 °F 17.1 °F 72% 30.17 in 10.0 mi SW 18.4 mph - N/A   Overcast
2:53 AM 24.1 °F 10.6 °F 17.1 °F 75% 30.17 in 10.0 mi SW 17.3 mph - N/A   Overcast
3:53 AM 25.0 °F 13.1 °F 19.0 °F 78% 30.16 in 10.0 mi SW 13.8 mph - N/A   Overcast
4:53 AM 25.0 °F 12.2 °F 18.0 °F 75% 30.17 in 10.0 mi WSW 16.1 mph - N/A   Overcast
5:53 AM 25.0 °F 14.8 °F 18.0 °F 75% 30.18 in 10.0 mi SW 10.4 mph - N/A   Overcast
6:53 AM 26.1 °F 14.5 °F 19.0 °F 75% 30.18 in 10.0 mi WSW 13.8 mph - N/A   Overcast
7:53 AM 24.1 °F 10.6 °F 18.0 °F 77% 30.16 in 10.0 mi WSW 17.3 mph - N/A   Overcast
8:53 AM 28.0 °F 16.5 °F 19.9 °F 72% 30.19 in 10.0 mi SW 15.0 mph - N/A   Overcast
9:53 AM 27.0 °F 14.3 °F 19.9 °F 75% 30.15 in 10.0 mi WSW 17.3 mph - N/A   Overcast
10:53 AM 30.0 °F 19.1 °F 21.9 °F 72% 30.14 in 10.0 mi WSW 15.0 mph - N/A   Overcast
11:53 AM 30.9 °F 19.1 °F 21.9 °F 69% 30.12 in 10.0 mi West 18.4 mph 28.8 mph N/A   Overcast
12:53 PM 32.0 °F 20.5 °F 24.1 °F 73% 30.12 in 10.0 mi West 18.4 mph - N/A   Scattered Clouds
1:53 PM 33.1 °F 20.3 °F 24.1 °F 70% 30.08 in 10.0 mi West 24.2 mph - N/A   Clear
2:53 PM 33.1 °F 22.2 °F 23.0 °F 66% 30.09 in 10.0 mi WNW 17.3 mph - N/A   Scattered Clouds
3:53 PM 33.1 °F 23.0 °F 23.0 °F 66% 30.09 in 10.0 mi WNW 15.0 mph - N/A   Overcast
4:53 PM 28.9 °F 19.8 °F 21.0 °F 72% 30.12 in 10.0 mi NW 10.4 mph - N/A   Partly Cloudy
5:53 PM 28.9 °F 20.4 °F 19.9 °F 69% 30.11 in 10.0 mi NW 9.2 mph - N/A   Clear
6:53 PM 28.0 °F 24.2 °F 19.0 °F 69% 30.13 in 10.0 mi ENE 3.5 mph - N/A   Clear
7:53 PM 21.9 °F 11.0 °F 17.1 °F 82% 30.19 in 10.0 mi SSE 10.4 mph - N/A   Scattered Clouds
8:53 PM 21.0 °F 10.6 °F 17.1 °F 85% 30.17 in 10.0 mi ESE 9.2 mph - N/A   Partly Cloudy
9:28 PM 26.6 °F 16.2 °F 17.6 °F 69% 30.09 in 10.0 mi WSW 11.5 mph - N/A   Partly Cloudy
10:53 PM 32.0 °F 20.1 °F 25.0 °F 75% 30.12 in 10.0 mi SW 19.6 mph - N/A   Overcast
11:53 PM 32.0 °F 21.6 °F 26.1 °F 79% 30.11 in 10.0 mi SSW 15.0 mph - N/A   Overcast